Вернуться в каталог

STARLINK-34945

АктивенСвязьSSO
NORAD 65185·PAYLOAD·🇺🇸 United States

Запущен Aug 14, 2025 с Vandenberg Space Force Base

Loading…

Ближайшие Пролёты (ближайшие 24 часа)

TLE

СвежийSource: CelesTrak SupGP

Эпоха: Sep 14, 2026, 21:04 UTC

1 65185C 25175M   26257.87826389 -.00029335  00000+0 -91084-3 0  2573
2 65185  97.2844 126.8879 0001877  91.7916  61.2760 15.33445683    13

Отслеживайте STARLINK-34945 в реальном времени с AllMySat

Download on the App Store